Location: Rounton
(54.4000°N, 1.3500°W)
Time: 19:05:45
(UTC+01:00)

S-56A Canister/Altair - Pass Details

Date: 09 September 2024
Orbit: 636 x 2487 km, 38.9° (Epoch: 06 October)

Event Time Altitude Azimuth Distance (km) Brightness Sun altitude
Rises 19:47:32 0° 180° (S) 3,694 10.9 -2.5°
Maximum altitude 19:54:19 10° 134° (SE) 3,326 10.3 -3.5°
Drops below altitude 10° 19:54:46 10° 130° (SE) 3,368 10.3 -3.5°
Enters shadow 20:00:00 - 102° (ESE) 4,295 10.6 -4.3°
Sets 20:02:58 0° 92° (E) 5,023 - -4.7°
